DELTA 1 DEB

Satellite information

Favourite Embed

Satellite Type and Status

DEBRISIN ORBIT

Key statistics

Satellite DELTA 1 DEB at a glance.

Uptime

18988

Days in orbit

Revolutions

≈ 12.1

Per day

Orbit

SSO

Sun Synchronous Orbit

Inclination

101.8

Latest

Satellite identification and parameters

Extended collection of information and parameters for DELTA 1 DEB.

Object identification

Identified? True

Debris? True

Object name: DELTA 1 DEB

International designator: 1973-086FB

Object number (NORAD): 7193

Object ID (CCSDS): 7193

Country: UNITED STATES OF AMERICA (US)

Current information (Y/N): Y

RCS size: SMALL

Orbital parameters

Period: 119.089 minutes

Inclination: 101.8493 deg

SMA: 8018.152 km

Apoapsis: 1881.727 km

Periapsis: 1398.307 km

RAAN: 19.7885 deg

Eccentricy: 0.0301454

Argument of periapsis: 236.6523 deg

Mean anomaly: 279.953 deg

Mean motion: 12.09181073 rev/day

Mean motion (dot): 0.00000257 rev/day2

B* drag term: 0.0028772 1/REarth

Two-line elements (TLE)

Creation date: Oct. 31, 2025, 10:56 p.m.

Reference frame: TEME

Reference center: EARTH

Epoch: Oct. 31, 2025, 4:54 p.m. UTC

TLE line 0: 0 DELTA 1 DEB

TLE line 1: 1 7193U 73086FB 25304.70476404 .00000257 00000-0 28772-2 0 9992

TLE line 2: 2 7193 101.8493 19.7885 0301454 236.6523 279.9530 12.09181073287172

Live tracking on map

Real-time ground track for satellite DELTA 1 DEB.

In-orbit conjunctions

A list of the most updated potential collisions computed for object DELTA 1 DEB.

Target Orbit TCA Probability of collision Miss distance Type
SL-14 R/B LEO 2024-08-08 17:02:11 0.001992517 42.0 (m) ROCKET BODY

Associated space launch

Meteorological satellite using radiometric imaging

DELTA 1 DEB was lifted into orbit during the mission ‘Delta 0300 | NOAA 3’, on board a Delta 0300 space rocket.

The launch took place on Nov. 6, 1973, 5:02 p.m. from Space Launch Complex 2W.

For more information about the launch, click the button.

Launch to space Delta 0300 | NOAA 3
Delta 0300 | NOAA 3

Agency: N/A

Status: Launch Successful

Launch date: Nov. 6, 1973, 5:02 p.m. UTC

Rocket: Delta 0300

Launch pad: Space Launch Complex 2W

Location: Vandenberg SFB, CA, USA

...

Latest news about this satellite

There are no fresh news available about this satellite. Check back as we update our databases every day.


Newsletter sign-up

Weekly statistics, charts and insights to help you stay on top of the space industry.